Seldovia, AK

2:15 AM AKST on February 22, 2017 (GMT -0900)
Seldovia

Weather History for PASO - May, 2013

Change the Weather History Date:

Wednesday, May 29, 2013

  Actual Average (PAHO) Record (PAHO)
Temperature  
Mean Temperature 52 °F -  
Max Temperature 63 °F 53 °F 66 °F (1993)
Min Temperature 43 °F 39 °F 29 °F (1950)
Degree Days  
Heating Degree Days 12    
Growing Degree Days 2 (Base 50)    
Moisture  
Dew Point 42 °F    
Average Humidity 71    
Maximum Humidity 89    
Minimum Humidity 50    
Precipitation  
Precipitation 0.00 in - - ()
Sea Level Pressure  
Sea Level Pressure 29.71 in    
Wind  
Wind Speed 2 mph (NNE)    
Max Wind Speed 6 mph    
Max Gust Speed -    
Visibility 10 miles    
Events Rain    
Averages and records for this station are not official NWS values.
T = Trace of Precipitation, MM = Missing Value Source: NWS Daily Summary

Daily Weather History Graph

Daily Weather History Graph

Search for Another Location

Airport or City:

Trip Planner

Search our weather history database for the weather conditions in past years. The results will help you decide how hot, cold, wet, or windy it might be!

Date:

Astronomy

May. 29, 2013 Rise Set
Actual Time 5:05 AM AKDT 11:04 PM AKDT
Civil Twilight 3:50 AM AKDT 12:20 AM AKDT
Nautical Twilight Sun does not rise Sun does not rise
Astronomical Twilight Sun does not rise Sun does not rise
Moon 1:48 AM AKDT (5/29) 11:06 AM AKDT (5/29)
Length of Visible Light 20h 30m
Length of Day
17h 59m
Waning Gibbous, 71% of the Moon is Illuminated
May 29
Waning Gibbous
May 31
Last Quarter
Jun 8
New
Jun 16
First Quarter
Jun 23
Full

Hourly Weather History & Observations

Time (AKDT) Temp. Dew Point Humidity Pressure Visibility Wind Dir Wind Speed Gust Speed Precip Events Conditions
12:53 AM 46.0 °F 41.0 °F 83% 29.68 in 10.0 mi Calm Calm - N/A   Clear
1:53 AM 44.1 °F 39.0 °F 82% 29.67 in 10.0 mi Calm Calm - N/A   Clear
2:53 AM 43.0 °F 39.0 °F 86% 29.68 in 10.0 mi Calm Calm - N/A   Clear
3:53 AM 43.0 °F 39.0 °F 86% 29.68 in 10.0 mi Calm Calm - N/A   Clear
4:53 AM 44.1 °F 39.9 °F 85% 29.68 in 10.0 mi Calm Calm - N/A   Partly Cloudy
5:53 AM 43.0 °F 39.9 °F 89% 29.69 in 10.0 mi Calm Calm - N/A   Partly Cloudy
6:53 AM 45.0 °F 41.0 °F 86% 29.69 in 10.0 mi Calm Calm - 0.00 in Rain Light Rain
7:53 AM 46.9 °F 42.1 °F 83% 29.69 in 10.0 mi Calm Calm - 0.00 in   Scattered Clouds
8:53 AM 51.1 °F 42.1 °F 71% 29.69 in 10.0 mi NNE 4.6 mph - N/A   Clear
9:53 AM 54.0 °F 42.1 °F 64% 29.70 in 10.0 mi NNE 4.6 mph - N/A   Clear
10:53 AM 57.0 °F 42.1 °F 57% 29.70 in 10.0 mi NE 4.6 mph - N/A   Clear
11:53 AM 57.0 °F 41.0 °F 55% 29.71 in 10.0 mi NNE 5.8 mph - N/A   Clear
12:53 PM 55.0 °F 42.1 °F 62% 29.71 in 10.0 mi NNE 5.8 mph - N/A   Clear
1:53 PM 54.0 °F 43.0 °F 66% 29.72 in 10.0 mi NNE 5.8 mph - N/A   Clear
2:53 PM 54.0 °F 43.0 °F 66% 29.72 in 10.0 mi North 5.8 mph - N/A   Clear
3:53 PM 55.9 °F 44.1 °F 64% 29.72 in 10.0 mi North 4.6 mph - N/A   Clear
4:53 PM 57.0 °F 45.0 °F 64% 29.72 in 10.0 mi NNE 4.6 mph - N/A   Clear
5:53 PM 62.1 °F 43.0 °F 50% 29.72 in 10.0 mi North 3.5 mph - N/A   Clear
6:53 PM 61.0 °F 43.0 °F 52% 29.72 in 10.0 mi North 4.6 mph - N/A   Clear
7:53 PM 57.9 °F 42.1 °F 56% 29.73 in 10.0 mi NNE 4.6 mph - N/A   Clear
8:53 PM 55.0 °F 43.0 °F 64% 29.73 in 10.0 mi Calm Calm - N/A   Clear
9:53 PM 52.0 °F 43.0 °F 71% 29.75 in 10.0 mi Calm Calm - N/A   Clear
10:53 PM 48.9 °F 42.1 °F 77% 29.76 in 9.0 mi Calm Calm - N/A   Clear
11:53 PM 46.0 °F 41.0 °F 83% 29.78 in 10.0 mi Calm Calm - N/A   Clear